| time (UTC) | temp F | wind direction | speed MPH | gust MPH | rain 1hr in | rain 24hr in | rain mn in | humidity % | barometer mb |
| 20260502220906 | 53 | 318 | 4.0 | 4.0 | 0.05 | 0.15 | 0.15 | 91 | 1002.6 |
| 20260502220006 | 53 | 325 | 4.0 | 7.0 | 0.04 | 0.14 | 0.14 | 90 | 1002.5 |
| 20260502215618 | 53 | 324 | 3.0 | 6.0 | 0.04 | 0.14 | 0.14 | 90 | 1002.7 |
| 20260502214507 | 53 | 328 | 2.0 | 2.0 | 0.04 | 0.14 | 0.14 | 90 | 1002.7 |
| 20260502213605 | 53 | 328 | 3.0 | 4.0 | 0.04 | 0.13 | 0.13 | 90 | 1002.8 |
| 20260502212706 | 53 | 327 | 2.0 | 4.0 | 0.05 | 0.12 | 0.12 | 89 | 1003.0 |
| 20260502211805 | 53 | 312 | 2.0 | 4.0 | 0.05 | 0.11 | 0.11 | 89 | 1003.0 |
| 20260502210907 | 53 | 312 | 2.0 | 4.0 | 0.06 | 0.11 | 0.11 | 89 | 1003.1 |
| 20260502210007 | 53 | 313 | 1.0 | 2.0 | 0.07 | 0.11 | 0.11 | 88 | 1003.2 |
| 20260502205411 | 53 | 289 | 1.0 | 2.0 | 0.07 | 0.11 | 0.11 | 88 | 1003.0 |
| 20260502204505 | 54 | 254 | 1.0 | 2.0 | 0.07 | 0.11 | 0.11 | 88 | 1003.3 |
| 20260502203604 | 54 | 247 | 0.0 | 2.0 | 0.07 | 0.09 | 0.09 | 87 | 1003.3 |
| 20260502202705 | 54 | 0 | 0.0 | 0.0 | 0.06 | 0.07 | 0.07 | 87 | 1003.3 |
| 20260502201806 | 54 | 247 | 0.0 | 2.0 | 0.05 | 0.06 | 0.06 | 86 | 1003.5 |
| 20260502200907 | 54 | 247 | 0.0 | 2.0 | 0.04 | 0.05 | 0.05 | 85 | 1003.7 |
| 20260502200011 | 54 | 247 | 1.0 | 2.0 | 0.02 | 0.04 | 0.04 | 85 | 1003.6 |
| 20260502195407 | 54 | 253 | 1.0 | 2.0 | 0.02 | 0.04 | 0.04 | 84 | 1003.5 |
| 20260502194507 | 55 | 270 | 0.0 | 2.0 | 0.02 | 0.04 | 0.04 | 82 | 1003.6 |
| 20260502193605 | 55 | 257 | 1.0 | 2.0 | 0.01 | 0.02 | 0.02 | 81 | 1003.6 |
| 20260502192921 | 55 | 258 | 1.0 | 2.0 | 0.01 | 0.02 | 0.02 | 80 | 1003.5 |
| 20260502191807 | 56 | 268 | 1.0 | 2.0 | 0.00 | 0.01 | 0.01 | 79 | 1003.5 |
| 20260502190907 | 56 | 293 | 1.0 | 2.0 | 0.00 | 0.01 | 0.01 | 78 | 1003.4 |
| 20260502190008 | 56 | 288 | 2.0 | 2.0 | 0.00 | 0.01 | 0.01 | 77 | 1003.6 |
| 20260502185405 | 56 | 298 | 2.0 | 2.0 | 0.00 | 0.01 | 0.01 | 77 | 1003.4 |
| 20260502184505 | 56 | 281 | 2.0 | 4.0 | 0.00 | 0.01 | 0.01 | 76 | 1003.3 |
| 20260502183814 | 56 | 271 | 3.0 | 4.0 | 0.00 | 0.01 | 0.01 | 75 | 1003.5 |
| 20260502182707 | 56 | 303 | 3.0 | 4.0 | 0.00 | 0.01 | 0.01 | 74 | 1003.5 |
| 20260502181807 | 57 | 312 | 3.0 | 4.0 | 0.00 | 0.01 | 0.01 | 74 | 1003.4 |
| 20260502180905 | 57 | 329 | 2.0 | 2.0 | 0.00 | 0.01 | 0.01 | 73 | 1003.6 |
| 20260502180219 | 57 | 314 | 3.0 | 4.0 | 0.00 | 0.01 | 0.01 | 73 | 1003.5 |
| 20260502163610 | 59 | 302 | 5.0 | 7.0 | 0.00 | 0.02 | 0.01 | 69 | 1003.7 |
| 20260502162918 | 60 | 308 | 6.0 | 9.0 | 0.00 | 0.02 | 0.01 | 69 | 1003.7 |
| 20260502161805 | 60 | 320 | 4.0 | 8.0 | 0.00 | 0.02 | 0.01 | 68 | 1003.8 |
| 20260502160907 | 61 | 344 | 3.0 | 4.0 | 0.00 | 0.02 | 0.01 | 68 | 1003.9 |
| 20260502151807 | 63 | 22 | 2.0 | 4.0 | 0.00 | 0.04 | 0.01 | 59 | 1004.5 |
| 20260502150907 | 63 | 39 | 3.0 | 6.0 | 0.00 | 0.04 | 0.01 | 59 | 1004.5 |
| 20260502150215 | 63 | 355 | 5.0 | 7.0 | 0.00 | 0.04 | 0.01 | 59 | 1004.7 |
| 20260502123608 | 62 | 350 | 3.0 | 6.0 | 0.00 | 0.04 | 0.01 | 60 | 1006.0 |
| 20260502122920 | 62 | 345 | 2.0 | 4.0 | 0.00 | 0.04 | 0.01 | 59 | 1006.2 |
| 20260502121809 | 61 | 358 | 3.0 | 4.0 | 0.00 | 0.04 | 0.01 | 61 | 1006.3 |
| 20260502120906 | 61 | 289 | 2.0 | 4.0 | 0.00 | 0.04 | 0.01 | 62 | 1006.7 |
| 20260502115407 | 61 | 310 | 3.0 | 4.0 | 0.00 | 0.04 | 0.01 | 61 | 1006.6 |
| 20260502114508 | 62 | 276 | 3.0 | 4.0 | 0.00 | 0.04 | 0.01 | 61 | 1006.7 |
| 20260502113608 | 61 | 68 | 3.0 | 4.0 | 0.00 | 0.04 | 0.01 | 59 | 1006.9 |
| 20260502112705 | 62 | 148 | 4.0 | 6.0 | 0.00 | 0.04 | 0.01 | 59 | 1007.0 |
| 20260502112018 | 61 | 107 | 3.0 | 6.0 | 0.00 | 0.04 | 0.01 | 59 | 1007.1 |
| 20260502110907 | 61 | 95 | 3.0 | 4.0 | 0.00 | 0.04 | 0.01 | 62 | 1007.2 |
| 20260502110008 | 60 | 124 | 4.0 | 4.0 | 0.00 | 0.04 | 0.01 | 62 | 1007.1 |
| 20260502105407 | 59 | 114 | 3.0 | 4.0 | 0.00 | 0.04 | 0.01 | 64 | 1007.4 |
| 20260502104507 | 60 | 144 | 2.0 | 4.0 | 0.00 | 0.04 | 0.01 | 62 | 1007.4 |
| 20260502103607 | 59 | 121 | 3.0 | 4.0 | 0.00 | 0.04 | 0.01 | 63 | 1007.4 |
| 20260502102705 | 59 | 85 | 3.0 | 4.0 | 0.00 | 0.04 | 0.01 | 64 | 1007.1 |
| 20260502101116 | 58 | 179 | 2.0 | 4.0 | 0.00 | 0.04 | 0.01 | 65 | 1007.1 |
| 20260502091117 | 55 | 131 | 3.0 | 4.0 | 0.00 | 0.04 | 0.01 | 75 | 1008.0 |
| 20260502070910 | 49 | 119 | 2.0 | 4.0 | 0.00 | 0.04 | 0.01 | 88 | 1008.3 |
| 20260502070007 | 48 | 139 | 2.0 | 4.0 | 0.00 | 0.04 | 0.01 | 90 | 1008.1 |
| 20260502065405 | 47 | 128 | 3.0 | 4.0 | 0.00 | 0.04 | 0.01 | 90 | 1008.2 |
| 20260502064505 | 46 | 119 | 2.0 | 4.0 | 0.00 | 0.04 | 0.01 | 90 | 1008.2 |
| 20260502063605 | 46 | 120 | 2.0 | 2.0 | 0.01 | 0.04 | 0.01 | 91 | 1008.3 |
| 20260502062707 | 45 | 112 | 1.0 | 2.0 | 0.01 | 0.04 | 0.01 | 92 | 1008.2 |
| 20260502062016 | 44 | 120 | 2.0 | 2.0 | 0.01 | 0.04 | 0.01 | 92 | 1008.2 |
| 20260502061119 | 44 | 124 | 0.0 | 2.0 | 0.01 | 0.04 | 0.01 | 92 | 1008.1 |
| 20260502060216 | 44 | 120 | 0.0 | 2.0 | 0.01 | 0.04 | 0.01 | 92 | 1008.3 |
| 20260502055406 | 44 | 131 | 1.0 | 2.0 | 0.01 | 0.04 | 0.01 | 92 | 1008.2 |
| 20260502054507 | 43 | 135 | 1.0 | 2.0 | 0.01 | 0.04 | 0.01 | 92 | 1008.2 |
| 20260502053605 | 43 | 153 | 1.0 | 2.0 | 0.00 | 0.02 | 0.00 | 92 | 1008.3 |
| 20260502052708 | 43 | 143 | 1.0 | 2.0 | 0.00 | 0.02 | 0.00 | 92 | 1008.2 |
| 20260502051807 | 42 | 0 | 0.0 | 0.0 | 0.00 | 0.02 | 0.00 | 92 | 1007.9 |
| 20260502050907 | 42 | 157 | 0.0 | 2.0 | 0.00 | 0.02 | 0.00 | 92 | 1008.1 |
| 20260502050006 | 43 | 157 | 1.0 | 2.0 | 0.00 | 0.02 | 0.00 | 92 | 1008.2 |
| 20260502045618 | 43 | 157 | 0.0 | 2.0 | 0.00 | 0.02 | 0.00 | 92 | 1008.2 |
| 20260502044505 | 43 | 0 | 0.0 | 0.0 | 0.00 | 0.02 | 0.00 | 92 | 1008.0 |
| 20260502043607 | 43 | 138 | 0.0 | 2.0 | 0.00 | 0.02 | 0.00 | 92 | 1008.0 |
| 20260502042915 | 43 | 146 | 0.0 | 2.0 | 0.00 | 0.02 | 0.00 | 92 | 1008.0 |
| 20260502041806 | 43 | 0 | 0.0 | 0.0 | 0.00 | 0.02 | 0.00 | 91 | 1008.1 |
| 20260502040907 | 44 | 135 | 1.0 | 2.0 | 0.00 | 0.02 | 0.00 | 91 | 1008.1 |
| 20260502040011 | 44 | 140 | 0.0 | 2.0 | 0.00 | 0.02 | 0.00 | 91 | 1008.2 |
| 20260502035408 | 44 | 0 | 0.0 | 0.0 | 0.00 | 0.02 | 0.00 | 91 | 1008.3 |
| 20260502034507 | 44 | 0 | 0.0 | 0.0 | 0.00 | 0.02 | 0.00 | 91 | 1008.2 |
| 20260502033819 | 44 | 202 | 0.0 | 2.0 | 0.00 | 0.02 | 0.00 | 91 | 1008.4 |
| 20260502032705 | 45 | 202 | 0.0 | 2.0 | 0.00 | 0.02 | 0.00 | 91 | 1008.4 |
| 20260502032018 | 45 | 168 | 0.0 | 2.0 | 0.00 | 0.02 | 0.00 | 90 | 1008.2 |
| 20260502030907 | 45 | 180 | 0.0 | 2.0 | 0.00 | 0.02 | 0.00 | 90 | 1008.5 |
| 20260502030223 | 45 | 140 | 0.0 | 2.0 | 0.00 | 0.02 | 0.00 | 90 | 1008.2 |
| 20260502025405 | 46 | 101 | 0.0 | 2.0 | 0.00 | 0.02 | 0.00 | 90 | 1008.4 |
| 20260502024507 | 46 | 0 | 0.0 | 0.0 | 0.00 | 0.02 | 0.00 | 90 | 1008.4 |
| 20260502023608 | 46 | 202 | 0.0 | 2.0 | 0.00 | 0.02 | 0.00 | 90 | 1008.4 |
| 20260502022709 | 46 | 186 | 1.0 | 2.0 | 0.00 | 0.02 | 0.00 | 89 | 1008.6 |
| 20260502021807 | 47 | 219 | 0.0 | 2.0 | 0.00 | 0.02 | 0.00 | 89 | 1008.4 |
| 20260502020906 | 46 | 0 | 0.0 | 0.0 | 0.00 | 0.02 | 0.00 | 89 | 1008.5 |
| 20260502020005 | 47 | 155 | 1.0 | 2.0 | 0.00 | 0.02 | 0.00 | 89 | 1008.6 |
| 20260502015405 | 47 | 139 | 1.0 | 2.0 | 0.00 | 0.02 | 0.00 | 88 | 1008.5 |
| 20260502014505 | 47 | 122 | 1.0 | 2.0 | 0.00 | 0.02 | 0.00 | 88 | 1009.0 |
| 20260502013607 | 47 | 78 | 0.0 | 2.0 | 0.00 | 0.02 | 0.00 | 88 | 1009.0 |
| 20260502012705 | 47 | 119 | 1.0 | 2.0 | 0.00 | 0.02 | 0.00 | 87 | 1009.0 |
| 20260502011807 | 48 | 115 | 1.0 | 2.0 | 0.00 | 0.02 | 0.00 | 87 | 1009.3 |
| 20260502010906 | 49 | 95 | 0.0 | 2.0 | 0.00 | 0.02 | 0.00 | 86 | 1009.2 |
| 20260502010007 | 49 | 218 | 2.0 | 4.0 | 0.00 | 0.02 | 0.00 | 86 | 1009.1 |
| 20260502005407 | 49 | 245 | 2.0 | 4.0 | 0.00 | 0.02 | 0.00 | 86 | 1009.3 |
| 20260502004505 | 49 | 243 | 2.0 | 4.0 | 0.00 | 0.02 | 0.00 | 86 | 1009.2 |
| 20260502003609 | 49 | 216 | 3.0 | 6.0 | 0.00 | 0.02 | 0.00 | 87 | 1009.3 |
| 20260502002705 | 49 | 237 | 4.0 | 7.0 | 0.00 | 0.02 | 0.00 | 88 | 1009.2 |
| 20260502002015 | 49 | 235 | 3.0 | 7.0 | 0.00 | 0.02 | 0.00 | 89 | 1009.6 |
| 20260502000908 | 48 | 268 | 1.0 | 4.0 | 0.00 | 0.02 | 0.00 | 89 | 1009.6 |
| 20260502000007 | 48 | 157 | 0.0 | 2.0 | 0.00 | 0.02 | 0.00 | 89 | 1009.7 |
| 20260501235405 | 48 | 259 | 0.0 | 2.0 | 0.00 | 0.02 | 0.00 | 90 | 1009.6 |
| 20260501234719 | 48 | 255 | 1.0 | 4.0 | 0.00 | 0.02 | 0.00 | 90 | 1009.6 |
| 20260501233605 | 48 | 341 | 1.0 | 2.0 | 0.00 | 0.02 | 0.00 | 90 | 1009.7 |
| 20260501232919 | 48 | 212 | 1.0 | 2.0 | 0.00 | 0.02 | 0.00 | 90 | 1009.9 |
| 20260501232016 | 48 | 42 | 1.0 | 4.0 | 0.00 | 0.02 | 0.00 | 91 | 1009.9 |
| 20260501230906 | 48 | 213 | 2.0 | 4.0 | 0.00 | 0.02 | 0.00 | 91 | 1009.8 |
| 20260501230008 | 48 | 243 | 0.0 | 2.0 | 0.00 | 0.02 | 0.00 | 91 | 1009.9 |
| 20260501225407 | 49 | 241 | 1.0 | 4.0 | 0.00 | 0.02 | 0.02 | 92 | 1009.8 |
| 20260501224720 | 49 | 248 | 2.0 | 4.0 | 0.00 | 0.02 | 0.02 | 92 | 1009.9 |
| 20260501223606 | 48 | 270 | 1.0 | 2.0 | 0.00 | 0.02 | 0.02 | 92 | 1009.8 |
| 20260501222706 | 48 | 274 | 1.0 | 2.0 | 0.00 | 0.02 | 0.02 | 92 | 1009.8 |
| 20260501221808 | 48 | 292 | 1.0 | 2.0 | 0.00 | 0.02 | 0.02 | 92 | 1010.0 |